Regional Weather Roundup
Issued by NWS

Home | Current Version | Previous Version | Text Only | Print | Product List | Glossary Off
Versions: 1 2 3 4 5 6 7 8 9 10 11 12 13 14 15 16 17 18 19 20 21 22 23 24 25 26 27 28 29 30 31 32 33 34 35 36 37 38 39 40 41 42 43 44 45 46 47 48 49 50

000
ASUS43 KDTX 280301
RWRMI
MICHIGAN HOURLY REGIONAL WEATHER ROUNDUP
NATIONAL WEATHER SERVICE DETROIT/PONTIAC MI
1100 PM EDT TUE JUN 27 2017

NOTE: "FAIR" INDICATES FEW OR NO CLOUDS BELOW 12,000 FEET WITH NO
SIGNIFICANT WEATHER AND/OR OBSTRUCTION TO VISIBILITY.

MIZ047>049-052>055-059>063-066>070-074>076-081>083-280400-
SOUTHEAST LOWER MICHIGAN

CITY           SKY/WX    TMP DP  RH WIND       PRES   REMARKS
ADRIAN         CLEAR     57  47  69 NW3       30.08R
ALMA           CLEAR     55  52  90 SW3       30.05R
ANN ARBOR      CLEAR     49  47  93 SW3       30.06R
BAD AXE        CLEAR     56  53  88 S3        30.03R
CARO           CLEAR     54  54 100 CALM      30.03R
DETROIT CITY   CLEAR     64  49  57 CALM      30.05R
DETROIT        PTCLDY    64  46  52 W6        30.07R
FLINT          CLEAR     60  47  61 SW7       30.05R
GROSSE ILE     CLEAR     63  49  60 CALM      30.05R
HILLSDALE      CLEAR     54  45  71 CALM      30.08R
HOWELL         CLEAR     60  45  57 CALM      30.06R

CITY           SKY/WX    TMP DP  RH WIND       PRES   REMARKS
JACKSON        CLEAR     57  47  69 SW3       30.08R
LAMBERTVILLE   CLEAR     57  49  74 CALM      30.07R
LANSING        CLEAR     60  47  61 SW5       30.06R
LAPEER         FAIR      56  55  94 S3        30.05R
MASON          CLEAR     58  48  70 CALM      30.07R
MONROE         CLEAR     57  48  71 CALM      30.06R
MT. CLEMENS    PTCLDY    61  52  73 CALM      30.03R
PONTIAC        CLEAR     62  50  64 CALM      30.05R
PORT HOPE        N/A     60  52  74 SW6       30.00R
PORT HURON     CLEAR     54  50  87 CALM      30.05R
TRI CITIES     CLEAR     61  53  75 SW5       30.04R
MIDLAND        FAIR      55  51  85 CALM      30.02S
TROY           CLEAR     65  45  47 CALM      30.07R
SAGINAW HB     CLEAR     59  48  67 SW5       30.03R
$$
MIZ043>046-050>051-056>058-064>065-071>073-077>080-280400-
SOUTHWEST LOWER MICHIGAN

CITY           SKY/WX    TMP DP  RH WIND       PRES   REMARKS
BATTLE CREEK   CLEAR     60  46  59 CALM      30.08R
BENTON HARBOR  CLEAR     56  49  77 SE3       30.05R
BIG RAPIDS     CLEAR     56  49  78 CALM      30.04R
COLDWATER      CLEAR     54  47  77 CALM      30.08R
FREMONT        FAIR      56  50  81 CALM      30.04R
HOLLAND        CLEAR     60  49  66 S3        30.05R
GRAND RAPIDS   CLEAR     58  50  75 S5        30.05R
IONIA          FAIR      61  47  61 SW3       30.05R
KALAMAZOO      CLEAR     57  45  64 CALM      30.07S
LUDINGTON      MOCLDY    60  51  74 SE5       30.01R
MARSHALL       CLEAR     57  47  70 CALM      30.07R
MOUNT PLEASANT CLEAR     58  52  79 CALM      30.03R
MUSKEGON       PTCLDY    61  52  72 S7        30.04R
SOUTH HAVEN    CLEAR     56  52  84 CALM      30.05S
$$
MIZ016>042-280400-
NORTHERN LOWER MICHIGAN

CITY           SKY/WX    TMP DP  RH WIND       PRES   REMARKS
ALPENA         CLEAR     56  52  86 CALM      30.00R
BELLAIRE       CLEAR     52  50  93 CALM      30.00R
CADILLAC       CLEAR     53  49  86 CALM      30.03R
CHARLEVOIX     CLEAR     55  51  83 SE3       30.01S
FRANKFORT      CLEAR     62  49  63 S3        30.00R
GAYLORD        CLEAR     56  46  69 CALM      30.01R
GRAYLING       CLEAR     50  48  92 CALM      30.03R
HARBOR SPRINGS CLEAR     56  52  89 CALM      29.99R
HOUGHTON LAKE  CLEAR     53  49  86 CALM      30.03R
MANISTEE       CLEAR     58  51  78 CALM      30.00R
OSCODA         CLEAR     53  50  88 SW3       30.00R
PELLSTON       CLEAR     53  48  83 CALM      29.99R
ROGERS CITY    CLEAR     56  47  70 SW6       30.00R
TRAVERSE CITY  CLEAR     61  50  67 CALM      29.98R
$$
MIZ007>008-015-280400-
EASTERN UPPER MICHIGAN

CITY           SKY/WX    TMP DP  RH WIND       PRES   REMARKS
KINROSS        CLEAR     57  50  77 SW5       29.97R
MACKINAC ISLAN CLEAR     58  51  77 SW8       29.97S
NEWBERRY       CLEAR     54  51  89 S9        29.94F
S. S. MARIE    PTCLDY    55  47  74 CALM      29.96R
MUNISING         N/A     61  52  72 S8        29.91R
$$
MIZ004>006-011>014-085-280400-
CENTRAL UPPER MICHIGAN

CITY           SKY/WX    TMP DP  RH WIND       PRES   REMARKS
MANISTIQUE     CLEAR     56  53  89 CALM      29.95S
ESCANABA       CLEAR     62  57  83 S8        29.92R
MENOMINEE      PTCLDY    64  50  60 SW7       29.95R
SAWYER-GWINN   CLEAR     60  53  76 S9        29.92R
$$
MIZ001>003-009>011-084-280400-
WESTERN UPPER MICHIGAN

CITY           SKY/WX    TMP DP  RH WIND       PRES   REMARKS
IRON MOUNTAIN  PTCLDY    64  46  52 SW7       29.92R
HOUGHTON       CLOUDY    55  50  83 CALM      29.87R
COPPER HARBOR    N/A     59  47  64 SW9       29.85S
IRONWOOD       PTCLDY    64  47  53 S6        29.90R
$$

ABBREVIATIONS USED IN REMARKS
   TC - TEMPERATURE IN CELSIUS
  WCI - WIND CHILL INDEX
   HX - HEAT INDEX
  VSB - VISIBILITY





USA.gov is the U.S. government's official web portal to all federal, state and local government web resources and services.